QPF
0.00 0.00 0.00 0.00 0.01 0.01 0.01 0.01 0.01 0.01 0.01 0.00 0.00 0.01 0.01 0.03 0.02 0.01 0.01 0.02 0.02 0.02 0.02 0.02 0.02 0.02 0.04 0.06 0.08 0.13 0.17 0.12 0.08 0.08 0.06 0.05 0.04 0.04 0.03 0.03 0.03 0.03 0.02 0.03
0.00 0.00 0.00 0.01 0.01 0.00 0.00 0.00 0.01 0.01 0.01 0.00 0.01 0.01 0.00 0.01 0.01 0.02 0.03 0.04 0.04 0.04 0.04 0.05 0.05 0.05 0.07 0.10 0.15 0.20 0.17 0.15 0.10 0.08 0.07 0.06 0.06 0.07 0.05 0.05 0.05 0.06 0.07 0.06
0.00 0.00 0.01 0.01 0.01 0.00 0.00 0.01 0.02 0.02 0.02 0.01 0.01 0.01 0.00 0.01 0.01 0.03 0.04 0.05 0.06 0.04 0.04 0.05 0.05 0.05 0.05 0.06 0.10 0.16 0.21 0.19 0.15 0.10 0.09 0.08 0.08 0.07 0.06 0.07 0.09 0.09 0.08 0.07
0.00 0.00 0.01 0.01 0.01 0.01 0.01 0.01 0.02 0.02 0.03 0.02 0.02 0.02 0.01 0.01 0.03 0.05 0.07 0.07 0.07 0.07 0.08 0.05 0.03 0.03 0.03 0.04 0.06 0.09 0.14 0.14 0.13 0.11 0.10 0.11 0.11 0.09 0.10 0.12 0.12 0.11 0.08 0.06
0.00 0.00 0.00 0.01 0.01 0.01 0.01 0.02 0.02 0.03 0.04 0.03 0.03 0.03 0.03 0.02 0.02 0.03 0.04 0.05 0.08 0.09 0.06 0.04 0.03 0.04 0.05 0.08 0.10 0.09 0.14 0.14 0.12 0.12 0.11 0.11 0.11 0.13 0.13 0.13 0.13 0.12 0.10 0.07
0.00 0.00 0.00 0.01 0.01 0.00 0.01 0.02 0.02 0.02 0.04 0.04 0.04 0.04 0.03 0.03 0.02 0.03 0.03 0.03 0.06 0.08 0.07 0.10 0.10 0.08 0.07 0.09 0.09 0.07 0.10 0.19 0.22 0.22 0.19 0.14 0.12 0.13 0.14 0.17 0.16 0.14 0.10 0.08
0.00 0.01 0.00 0.01 0.01 0.01 0.01 0.02 0.02 0.03 0.03 0.04 0.05 0.04 0.03 0.02 0.02 0.02 0.02 0.02 0.02 0.04 0.06 0.08 0.08 0.07 0.07 0.08 0.10 0.11 0.13 0.15 0.19 0.22 0.20 0.18 0.16 0.14 0.15 0.15 0.14 0.13 0.12 0.11
0.00 0.01 0.01 0.01 0.01 0.01 0.02 0.02 0.03 0.04 0.03 0.03 0.02 0.02 0.02 0.03 0.03 0.03 0.03 0.02 0.02 0.02 0.03 0.04 0.05 0.05 0.06 0.07 0.08 0.11 0.16 0.19 0.19 0.20 0.22 0.22 0.18 0.14 0.12 0.12 0.12 0.12 0.10 0.09
0.02 0.02 0.01 0.01 0.01 0.02 0.02 0.02 0.02 0.02 0.01 0.01 0.01 0.01 0.01 0.02 0.02 0.03 0.03 0.02 0.02 0.03 0.02 0.03 0.04 0.04 0.04 0.05 0.07 0.10 0.12 0.11 0.13 0.14 0.15 0.16 0.14 0.12 0.10 0.10 0.09 0.09 0.09 0.10
0.04 0.02 0.02 0.01 0.01 0.01 0.01 0.01 0.01 0.01 0.01 0.01 0.01 0.01 0.01 0.02 0.02 0.02 0.02 0.02 0.02 0.03 0.03 0.03 0.03 0.03 0.04 0.04 0.05 0.07 0.08 0.08 0.08 0.08 0.08 0.09 0.10 0.10 0.10 0.10 0.09 0.08 0.07 0.09
0.04 0.03 0.02 0.02 0.01 0.01 0.00 0.00 0.00 0.00 0.00 0.01 0.01 0.01 0.01 0.03 0.03 0.03 0.02 0.03 0.03 0.04 0.04 0.03 0.02 0.02 0.03 0.03 0.04 0.05 0.06 0.06 0.06 0.06 0.07 0.07 0.07 0.07 0.10 0.10 0.09 0.09 0.09 0.09
0.01 0.01 0.02 0.02 0.02 0.01 0.01 0.01 0.01 0.01 0.00 0.01 0.01 0.01 0.02 0.04 0.04 0.03 0.04 0.04 0.04 0.03 0.02 0.02 0.01 0.02 0.03 0.03 0.04 0.05 0.05 0.05 0.05 0.06 0.07 0.08 0.08 0.08 0.12 0.12 0.10 0.09 0.09 0.09
0.01 0.01 0.01 0.01 0.01 0.01 0.01 0.01 0.01 0.01 0.00 0.00 0.00 0.00 0.02 0.03 0.03 0.03 0.03 0.03 0.02 0.02 0.02 0.02 0.01 0.01 0.02 0.03 0.04 0.04 0.04 0.04 0.05 0.05 0.06 0.07 0.06 0.07 0.08 0.09 0.07 0.05 0.05 0.04
0.02 0.03 0.05 0.03 0.02 0.01 0.01 0.01 0.01 0.01 0.00 0.01 0.01 0.01 0.02 0.02 0.03 0.03 0.02 0.03 0.02 0.04 0.04 0.02 0.01 0.01 0.02 0.02 0.03 0.03 0.04 0.05 0.06 0.05 0.05 0.06 0.05 0.05 0.04 0.04 0.03 0.03 0.02 0.02
0.02 0.02 0.03 0.03 0.02 0.02 0.02 0.02 0.02 0.01 0.01 0.01 0.01 0.01 0.02 0.04 0.05 0.02 0.02 0.02 0.02 0.03 0.03 0.01 0.01 0.01 0.01 0.02 0.03 0.03 0.03 0.03 0.04 0.04 0.05 0.06 0.06 0.05 0.04 0.03 0.02 0.01 0.01 0.01
0.02 0.03 0.04 0.03 0.02 0.02 0.02 0.03 0.02 0.01 0.01 0.01 0.01 0.01 0.02 0.07 0.06 0.02 0.01 0.02 0.03 0.03 0.03 0.02 0.02 0.03 0.02 0.02 0.03 0.03 0.03 0.03 0.04 0.03 0.04 0.05 0.06 0.05 0.04 0.03 0.02 0.02 0.02 0.02
0.04 0.04 0.03 0.02 0.02 0.02 0.03 0.04 0.04 0.03 0.02 0.01 0.01 0.01 0.02 0.06 0.06 0.03 0.01 0.02 0.02 0.02 0.02 0.03 0.03 0.03 0.03 0.03 0.03 0.03 0.02 0.02 0.02 0.02 0.03 0.03 0.03 0.04 0.04 0.04 0.04 0.04 0.04 0.04
0.03 0.03 0.03 0.02 0.02 0.02 0.03 0.04 0.04 0.03 0.02 0.02 0.02 0.02 0.03 0.06 0.08 0.05 0.02 0.02 0.02 0.02 0.02 0.02 0.03 0.03 0.03 0.03 0.03 0.03 0.03 0.02 0.02 0.02 0.02 0.02 0.02 0.02 0.03 0.03 0.03 0.04 0.04 0.04
0.03 0.03 0.04 0.04 0.04 0.03 0.03 0.03 0.03 0.04 0.03 0.03 0.03 0.03 0.03 0.04 0.06 0.07 0.06 0.04 0.03 0.02 0.02 0.02 0.03 0.03 0.04 0.04 0.04 0.04 0.03 0.03 0.03 0.02 0.03 0.03 0.04 0.03 0.03 0.02 0.03 0.03 0.03 0.04
0.04 0.05 0.04 0.02 0.02 0.02 0.02 0.02 0.03 0.03 0.04 0.04 0.04 0.04 0.03 0.03 0.03 0.03 0.03 0.03 0.04 0.04 0.03 0.02 0.02 0.02 0.03 0.04 0.04 0.04 0.04 0.04 0.03 0.03 0.03 0.04 0.04 0.04 0.03 0.03 0.02 0.02 0.03 0.03
0.03 0.03 0.02 0.02 0.02 0.02 0.03 0.03 0.03 0.03 0.03 0.03 0.03 0.04 0.03 0.03 0.02 0.02 0.02 0.02 0.02 0.03 0.02 0.02 0.02 0.03 0.03 0.04 0.04 0.04 0.04 0.04 0.03 0.04 0.04 0.04 0.04 0.03 0.02 0.02 0.02 0.02 0.02 0.03
0.03 0.04 0.03 0.02 0.02 0.02 0.04 0.03 0.03 0.03 0.03 0.02 0.02 0.02 0.02 0.02 0.02 0.02 0.02 0.02 0.02 0.02 0.02 0.02 0.03 0.05 0.07 0.08 0.07 0.05 0.05 0.04 0.04 0.03 0.04 0.04 0.03 0.02 0.02 0.02 0.03 0.03 0.02 0.02
0.04 0.04 0.02 0.01 0.02 0.03 0.03 0.02 0.03 0.02 0.02 0.02 0.02 0.02 0.02 0.02 0.02 0.02 0.03 0.03 0.02 0.02 0.02 0.02 0.02 0.03 0.04 0.06 0.06 0.06 0.05 0.05 0.05 0.05 0.04 0.04 0.04 0.04 0.04 0.04 0.04 0.04 0.03 0.02
0.05 0.04 0.03 0.03 0.02 0.02 0.02 0.01 0.01 0.02 0.02 0.02 0.02 0.01 0.02 0.02 0.03 0.03 0.04 0.03 0.03 0.03 0.03 0.02 0.02 0.02 0.02 0.03 0.04 0.06 0.07 0.07 0.07 0.08 0.09 0.09 0.08 0.07 0.05 0.04 0.03 0.03 0.03 0.03
0.05 0.04 0.04 0.03 0.02 0.02 0.02 0.02 0.02 0.02 0.02 0.02 0.02 0.02 0.02 0.03 0.03 0.04 0.04 0.03 0.03 0.03 0.02 0.02 0.02 0.03 0.03 0.04 0.04 0.05 0.07 0.09 0.10 0.10 0.11 0.10 0.08 0.06 0.05 0.04 0.03 0.03 0.04 0.03
0.05 0.04 0.04 0.03 0.03 0.02 0.02 0.02 0.02 0.02 0.03 0.03 0.02 0.02 0.02 0.03 0.04 0.04 0.04 0.04 0.03 0.03 0.03 0.04 0.04 0.04 0.04 0.04 0.04 0.04 0.05 0.06 0.08 0.08 0.09 0.08 0.07 0.06 0.06 0.05 0.03 0.03 0.03 0.03
0.04 0.04 0.03 0.03 0.03 0.03 0.02 0.02 0.01 0.01 0.02 0.02 0.02 0.02 0.02 0.03 0.05 0.05 0.05 0.05 0.04 0.04 0.04 0.05 0.05 0.05 0.05 0.04 0.05 0.06 0.07 0.08 0.09 0.09 0.07 0.06 0.05 0.05 0.04 0.04 0.03 0.03 0.02 0.02
MSLP
1019.80 1020.03 1020.27 1020.54 1020.82 1021.06 1021.23 1021.27 1021.15 1020.83 1020.32 1019.63 1018.80 1017.87 1016.90 1015.91 1014.96 1014.04 1013.19 1012.38 1011.63 1010.92 1010.27 1009.68 1009.16 1008.72 1008.37 1008.11 1007.92 1007.78 1007.68 1007.57 1007.46 1007.32 1007.17 1007.03 1006.90 1006.83 1006.84 1006.93 1007.13 1007.41 1007.76 1008.15
1020.42 1020.71 1020.95 1021.16 1021.32 1021.41 1021.41 1021.30 1021.04 1020.64 1020.09 1019.40 1018.58 1017.68 1016.71 1015.70 1014.67 1013.65 1012.65 1011.68 1010.75 1009.89 1009.11 1008.43 1007.88 1007.44 1007.14 1006.95 1006.85 1006.81 1006.79 1006.76 1006.71 1006.63 1006.52 1006.39 1006.27 1006.20 1006.18 1006.25 1006.40 1006.62 1006.91 1007.25
1021.00 1021.32 1021.57 1021.73 1021.80 1021.78 1021.66 1021.43 1021.08 1020.60 1020.01 1019.30 1018.48 1017.57 1016.57 1015.51 1014.39 1013.24 1012.07 1010.92 1009.81 1008.78 1007.87 1007.10 1006.50 1006.06 1005.78 1005.66 1005.64 1005.69 1005.77 1005.84 1005.87 1005.87 1005.82 1005.74 1005.66 1005.60 1005.59 1005.64 1005.75 1005.92 1006.15 1006.41
1021.51 1021.85 1022.08 1022.21 1022.22 1022.12 1021.92 1021.60 1021.18 1020.66 1020.03 1019.29 1018.45 1017.51 1016.46 1015.32 1014.10 1012.81 1011.49 1010.17 1008.90 1007.73 1006.69 1005.83 1005.17 1004.72 1004.47 1004.38 1004.43 1004.56 1004.72 1004.88 1005.00 1005.08 1005.11 1005.10 1005.08 1005.06 1005.07 1005.11 1005.20 1005.34 1005.51 1005.71
1021.90 1022.23 1022.45 1022.54 1022.52 1022.38 1022.12 1021.76 1021.29 1020.73 1020.06 1019.30 1018.42 1017.43 1016.33 1015.11 1013.79 1012.39 1010.94 1009.50 1008.11 1006.82 1005.70 1004.77 1004.07 1003.59 1003.34 1003.28 1003.36 1003.54 1003.76 1003.99 1004.18 1004.34 1004.45 1004.51 1004.56 1004.60 1004.64 1004.71 1004.80 1004.91 1005.04 1005.19
1022.14 1022.44 1022.63 1022.70 1022.66 1022.49 1022.21 1021.82 1021.33 1020.73 1020.04 1019.24 1018.33 1017.29 1016.14 1014.86 1013.47 1012.00 1010.48 1008.96 1007.50 1006.16 1004.99 1004.02 1003.29 1002.80 1002.53 1002.47 1002.56 1002.75 1002.99 1003.26 1003.50 1003.72 1003.89 1004.03 1004.15 1004.26 1004.36 1004.46 1004.56 1004.67 1004.77 1004.88
1022.19 1022.44 1022.61 1022.67 1022.62 1022.45 1022.16 1021.76 1021.25 1020.64 1019.92 1019.09 1018.15 1017.08 1015.89 1014.58 1013.17 1011.67 1010.14 1008.61 1007.14 1005.80 1004.62 1003.65 1002.90 1002.39 1002.10 1002.01 1002.07 1002.24 1002.47 1002.74 1003.00 1003.26 1003.49 1003.69 1003.88 1004.06 1004.22 1004.37 1004.50 1004.61 1004.70 1004.77
1022.03 1022.25 1022.40 1022.46 1022.41 1022.24 1021.96 1021.57 1021.06 1020.43 1019.70 1018.85 1017.88 1016.80 1015.60 1014.29 1012.90 1011.43 1009.94 1008.46 1007.04 1005.74 1004.59 1003.64 1002.89 1002.36 1002.03 1001.89 1001.90 1002.01 1002.20 1002.44 1002.70 1002.97 1003.23 1003.49 1003.75 1003.99 1004.21 1004.41 1004.57 1004.70 1004.78 1004.82
1021.69 1021.89 1022.02 1022.08 1022.05 1021.91 1021.64 1021.26 1020.76 1020.13 1019.39 1018.54 1017.56 1016.49 1015.31 1014.04 1012.70 1011.31 1009.90 1008.51 1007.18 1005.96 1004.87 1003.95 1003.20 1002.64 1002.26 1002.05 1001.97 1002.00 1002.13 1002.31 1002.54 1002.81 1003.10 1003.40 1003.71 1004.01 1004.29 1004.54 1004.73 1004.87 1004.95 1004.96
1021.19 1021.37 1021.51 1021.60 1021.59 1021.47 1021.24 1020.88 1020.39 1019.78 1019.04 1018.19 1017.24 1016.19 1015.06 1013.86 1012.60 1011.31 1010.02 1008.75 1007.53 1006.39 1005.37 1004.47 1003.73 1003.13 1002.68 1002.38 1002.20 1002.14 1002.18 1002.30 1002.49 1002.74 1003.05 1003.38 1003.74 1004.09 1004.41 1004.70 1004.92 1005.06 1005.13 1005.12
1020.56 1020.75 1020.92 1021.03 1021.05 1020.98 1020.78 1020.46 1019.99 1019.40 1018.68 1017.86 1016.94 1015.94 1014.87 1013.76 1012.61 1011.44 1010.27 1009.12 1008.02 1006.97 1006.00 1005.13 1004.36 1003.71 1003.19 1002.78 1002.50 1002.34 1002.29 1002.34 1002.49 1002.73 1003.04 1003.40 1003.78 1004.17 1004.53 1004.84 1005.08 1005.22 1005.27 1005.24
1019.86 1020.07 1020.26 1020.41 1020.49 1020.46 1020.30 1020.01 1019.59 1019.03 1018.35 1017.56 1016.69 1015.75 1014.77 1013.75 1012.71 1011.67 1010.62 1009.59 1008.58 1007.61 1006.68 1005.82 1005.02 1004.32 1003.71 1003.21 1002.83 1002.57 1002.44 1002.43 1002.54 1002.76 1003.07 1003.45 1003.85 1004.26 1004.64 1004.96 1005.20 1005.33 1005.36 1005.30
1019.12 1019.36 1019.59 1019.78 1019.91 1019.93 1019.82 1019.58 1019.19 1018.68 1018.04 1017.31 1016.50 1015.63 1014.74 1013.82 1012.89 1011.96 1011.02 1010.09 1009.17 1008.26 1007.36 1006.49 1005.67 1004.91 1004.23 1003.65 1003.19 1002.85 1002.66 1002.61 1002.69 1002.90 1003.20 1003.58 1004.00 1004.41 1004.79 1005.09 1005.31 1005.43 1005.43 1005.35
1018.36 1018.64 1018.92 1019.16 1019.33 1019.40 1019.35 1019.15 1018.82 1018.35 1017.77 1017.10 1016.35 1015.57 1014.76 1013.94 1013.11 1012.28 1011.45 1010.60 1009.75 1008.88 1008.01 1007.15 1006.30 1005.51 1004.77 1004.14 1003.62 1003.24 1003.01 1002.93 1003.00 1003.20 1003.50 1003.88 1004.28 1004.68 1005.03 1005.31 1005.50 1005.58 1005.57 1005.47
1017.63 1017.94 1018.26 1018.55 1018.78 1018.90 1018.89 1018.75 1018.47 1018.05 1017.53 1016.92 1016.25 1015.55 1014.82 1014.09 1013.36 1012.62 1011.87 1011.10 1010.30 1009.48 1008.64 1007.79 1006.95 1006.14 1005.39 1004.74 1004.21 1003.82 1003.58 1003.49 1003.56 1003.75 1004.04 1004.40 1004.77 1005.14 1005.45 1005.69 1005.83 1005.89 1005.85 1005.74
1016.92 1017.27 1017.64 1017.98 1018.25 1018.42 1018.47 1018.37 1018.14 1017.79 1017.33 1016.78 1016.18 1015.55 1014.91 1014.26 1013.60 1012.94 1012.27 1011.57 1010.84 1010.07 1009.27 1008.45 1007.64 1006.86 1006.14 1005.51 1004.99 1004.62 1004.40 1004.33 1004.40 1004.59 1004.86 1005.19 1005.53 1005.84 1006.09 1006.27 1006.37 1006.39 1006.33 1006.24
1016.26 1016.65 1017.06 1017.45 1017.76 1017.98 1018.07 1018.03 1017.85 1017.55 1017.15 1016.67 1016.14 1015.57 1015.00 1014.42 1013.84 1013.25 1012.64 1012.01 1011.34 1010.64 1009.90 1009.14 1008.39 1007.67 1007.01 1006.44 1005.99 1005.66 1005.48 1005.44 1005.52 1005.70 1005.95 1006.24 1006.52 1006.76 1006.95 1007.07 1007.12 1007.11 1007.05 1006.96
1015.66 1016.09 1016.53 1016.95 1017.31 1017.57 1017.70 1017.70 1017.57 1017.33 1016.98 1016.56 1016.09 1015.60 1015.09 1014.57 1014.05 1013.53 1012.99 1012.42 1011.82 1011.18 1010.53 1009.85 1009.19 1008.56 1007.99 1007.51 1007.13 1006.88 1006.75 1006.74 1006.83 1007.00 1007.22 1007.46 1007.68 1007.86 1007.98 1008.04 1008.05 1008.01 1007.95 1007.90
1015.12 1015.58 1016.05 1016.50 1016.89 1017.17 1017.34 1017.39 1017.31 1017.11 1016.82 1016.46 1016.05 1015.61 1015.16 1014.70 1014.23 1013.76 1013.28 1012.78 1012.25 1011.69 1011.12 1010.55 1009.99 1009.46 1009.00 1008.61 1008.33 1008.15 1008.08 1008.10 1008.20 1008.36 1008.55 1008.73 1008.89 1009.01 1009.07 1009.09 1009.07 1009.02 1008.98 1008.97
1014.65 1015.12 1015.61 1016.08 1016.48 1016.79 1016.98 1017.06 1017.02 1016.87 1016.63 1016.33 1015.97 1015.59 1015.19 1014.78 1014.36 1013.94 1013.51 1013.07 1012.61 1012.13 1011.65 1011.17 1010.71 1010.30 1009.94 1009.65 1009.46 1009.35 1009.33 1009.38 1009.49 1009.63 1009.78 1009.92 1010.03 1010.10 1010.13 1010.12 1010.09 1010.06 1010.05 1010.09
1014.26 1014.73 1015.21 1015.67 1016.07 1016.38 1016.59 1016.69 1016.69 1016.58 1016.39 1016.14 1015.84 1015.51 1015.16 1014.80 1014.43 1014.05 1013.67 1013.28 1012.88 1012.47 1012.07 1011.68 1011.32 1011.00 1010.73 1010.54 1010.41 1010.37 1010.38 1010.46 1010.57 1010.70 1010.82 1010.93 1011.01 1011.06 1011.07 1011.06 1011.05 1011.05 1011.10 1011.20
1013.95 1014.39 1014.84 1015.27 1015.64 1015.94 1016.15 1016.26 1016.28 1016.22 1016.08 1015.88 1015.63 1015.35 1015.05 1014.74 1014.41 1014.08 1013.74 1013.40 1013.05 1012.70 1012.37 1012.06 1011.77 1011.53 1011.34 1011.22 1011.16 1011.15 1011.20 1011.29 1011.40 1011.52 1011.64 1011.73 1011.81 1011.85 1011.88 1011.90 1011.93 1011.98 1012.09 1012.26
1013.74 1014.12 1014.51 1014.87 1015.20 1015.46 1015.65 1015.76 1015.80 1015.77 1015.67 1015.52 1015.33 1015.11 1014.86 1014.59 1014.31 1014.03 1013.73 1013.43 1013.13 1012.84 1012.56 1012.30 1012.08 1011.91 1011.78 1011.71 1011.69 1011.72 1011.79 1011.90 1012.02 1012.14 1012.26 1012.37 1012.45 1012.53 1012.59 1012.66 1012.75 1012.88 1013.05 1013.28
1013.62 1013.91 1014.21 1014.49 1014.74 1014.95 1015.10 1015.20 1015.25 1015.24 1015.18 1015.08 1014.94 1014.78 1014.58 1014.37 1014.14 1013.90 1013.64 1013.39 1013.13 1012.89 1012.66 1012.46 1012.29 1012.17 1012.09 1012.06 1012.08 1012.15 1012.24 1012.37 1012.50 1012.64 1012.78 1012.91 1013.04 1013.16 1013.28 1013.41 1013.57 1013.77 1014.01 1014.29
1013.57 1013.75 1013.94 1014.12 1014.28 1014.42 1014.53 1014.60 1014.65 1014.65 1014.63 1014.57 1014.49 1014.38 1014.24 1014.09 1013.91 1013.71 1013.51 1013.30 1013.09 1012.89 1012.71 1012.56 1012.45 1012.38 1012.35 1012.36 1012.42 1012.52 1012.65 1012.80 1012.97 1013.14 1013.31 1013.48 1013.66 1013.83 1014.02 1014.22 1014.45 1014.70 1015.00 1015.32
1013.55 1013.62 1013.69 1013.76 1013.83 1013.89 1013.95 1013.99 1014.02 1014.04 1014.04 1014.03 1013.99 1013.94 1013.86 1013.76 1013.64 1013.50 1013.34 1013.18 1013.03 1012.88 1012.76 1012.66 1012.61 1012.59 1012.61 1012.69 1012.80 1012.94 1013.11 1013.30 1013.51 1013.72 1013.94 1014.16 1014.38 1014.61 1014.85 1015.11 1015.39 1015.69 1016.02 1016.36
1013.50 1013.46 1013.42 1013.39 1013.37 1013.36 1013.36 1013.37 1013.40 1013.42 1013.45 1013.47 1013.48 1013.48 1013.45 1013.40 1013.34 1013.25 1013.15 1013.05 1012.95 1012.87 1012.81 1012.78 1012.79 1012.84 1012.93 1013.06 1013.23 1013.44 1013.66 1013.91 1014.16 1014.42 1014.68 1014.95 1015.21 1015.49 1015.77 1016.06 1016.37 1016.69 1017.03 1017.37
Thickness
5754 5763 5768 5768 5771 5774 5765 5756 5747 5753 5758 5770 5780 5785 5788 5790 5788 5788 5788 5787 5788 5788 5789 5788 5787 5787 5786 5784 5784 5782 5779 5777 5776 5774 5772 5770 5767 5766 5765 5762 5760 5758 5755 5752
5748 5760 5761 5759 5766 5769 5767 5765 5759 5758 5758 5774 5779 5781 5781 5780 5780 5778 5777 5778 5779 5780 5781 5781 5780 5779 5778 5778 5778 5777 5773 5771 5770 5768 5766 5764 5762 5760 5758 5757 5755 5752 5749 5746
5722 5740 5744 5735 5753 5756 5755 5759 5756 5746 5754 5765 5765 5767 5768 5771 5772 5771 5771 5772 5771 5772 5774 5774 5774 5773 5772 5772 5772 5770 5767 5765 5762 5761 5760 5758 5758 5755 5753 5751 5748 5745 5743 5740
5710 5720 5709 5732 5758 5760 5751 5750 5752 5752 5754 5757 5756 5759 5764 5766 5766 5765 5766 5765 5765 5766 5766 5767 5768 5768 5767 5766 5764 5761 5758 5757 5755 5753 5751 5750 5749 5747 5746 5744 5742 5739 5736 5734
5695 5696 5707 5732 5748 5749 5739 5732 5745 5744 5746 5749 5754 5752 5751 5757 5759 5759 5760 5759 5758 5759 5759 5759 5759 5759 5758 5756 5754 5752 5750 5749 5748 5746 5744 5742 5740 5739 5737 5736 5734 5732 5730 5727
5692 5690 5690 5715 5743 5753 5740 5716 5738 5740 5738 5739 5740 5728 5734 5748 5751 5752 5753 5752 5751 5751 5751 5750 5749 5749 5747 5745 5743 5742 5742 5741 5741 5740 5738 5735 5734 5733 5731 5729 5727 5725 5722 5720
5686 5685 5695 5720 5738 5741 5709 5708 5731 5734 5734 5733 5729 5729 5735 5740 5741 5742 5743 5744 5744 5743 5740 5740 5740 5739 5735 5734 5733 5734 5734 5733 5732 5731 5730 5729 5726 5725 5723 5721 5718 5715 5713 5710
5677 5675 5685 5719 5723 5712 5709 5721 5725 5727 5729 5728 5728 5730 5731 5731 5731 5732 5732 5734 5735 5732 5730 5730 5730 5728 5725 5724 5725 5725 5725 5724 5723 5723 5722 5720 5717 5716 5714 5711 5708 5705 5703 5699
5679 5684 5701 5713 5713 5715 5716 5715 5718 5719 5722 5723 5721 5721 5722 5722 5721 5722 5724 5725 5725 5722 5720 5719 5719 5718 5715 5715 5716 5715 5714 5714 5713 5713 5712 5710 5708 5706 5704 5702 5699 5696 5693 5691
5677 5687 5696 5702 5708 5710 5712 5712 5714 5715 5715 5715 5713 5714 5713 5713 5712 5713 5715 5715 5714 5713 5710 5708 5709 5708 5707 5707 5707 5705 5704 5703 5703 5702 5700 5700 5699 5697 5695 5693 5690 5688 5685 5683
5670 5680 5687 5694 5698 5702 5705 5707 5707 5708 5708 5707 5705 5704 5704 5704 5704 5704 5704 5704 5704 5702 5700 5699 5698 5698 5698 5698 5697 5694 5693 5692 5692 5691 5690 5688 5687 5686 5686 5685 5684 5681 5678 5676
5662 5674 5674 5680 5691 5696 5697 5698 5699 5699 5699 5700 5699 5697 5696 5694 5695 5695 5694 5694 5692 5691 5690 5689 5689 5688 5688 5688 5686 5684 5682 5682 5681 5680 5679 5677 5676 5674 5674 5674 5674 5673 5671 5669
5669 5674 5675 5680 5685 5688 5689 5691 5692 5692 5692 5690 5690 5689 5687 5685 5685 5684 5683 5683 5682 5680 5679 5679 5679 5678 5678 5677 5677 5675 5673 5672 5671 5671 5669 5668 5666 5665 5663 5662 5662 5661 5661 5660
5668 5669 5667 5671 5673 5679 5682 5684 5685 5684 5684 5683 5681 5680 5679 5677 5676 5675 5674 5673 5673 5671 5670 5669 5669 5668 5669 5669 5668 5666 5665 5664 5663 5661 5660 5659 5658 5657 5656 5654 5652 5650 5650 5650
5661 5663 5662 5665 5668 5669 5672 5673 5672 5670 5671 5670 5671 5670 5669 5667 5666 5666 5666 5665 5664 5661 5660 5660 5660 5660 5661 5660 5659 5657 5656 5655 5654 5653 5652 5651 5650 5649 5647 5645 5643 5641 5640 5639
5654 5657 5658 5658 5658 5659 5661 5661 5659 5658 5659 5659 5659 5659 5659 5659 5658 5657 5657 5656 5654 5651 5652 5652 5652 5652 5653 5652 5650 5648 5648 5649 5648 5646 5645 5643 5642 5640 5638 5637 5635 5634 5632 5631
5645 5645 5646 5646 5648 5650 5651 5651 5650 5650 5649 5649 5648 5649 5649 5648 5647 5647 5647 5647 5646 5645 5644 5645 5645 5645 5645 5644 5642 5640 5640 5640 5640 5639 5637 5636 5635 5633 5632 5630 5629 5627 5626 5625
5642 5642 5643 5643 5642 5641 5642 5643 5643 5642 5641 5641 5640 5640 5639 5638 5638 5638 5638 5638 5637 5636 5636 5637 5638 5638 5637 5637 5635 5633 5632 5631 5631 5630 5629 5628 5627 5626 5625 5624 5622 5621 5619 5618
5638 5638 5638 5639 5639 5637 5635 5635 5636 5635 5635 5634 5632 5631 5631 5631 5631 5631 5630 5629 5628 5627 5629 5630 5631 5630 5629 5629 5628 5626 5625 5625 5624 5624 5623 5622 5621 5620 5618 5617 5616 5615 5613 5611
5633 5633 5633 5632 5632 5631 5630 5630 5629 5628 5628 5627 5625 5624 5623 5624 5624 5624 5622 5621 5622 5622 5624 5624 5624 5623 5623 5623 5623 5620 5619 5619 5618 5617 5616 5615 5614 5613 5612 5612 5610 5608 5606 5605
5626 5626 5625 5625 5624 5625 5624 5623 5622 5620 5620 5620 5619 5617 5616 5617 5618 5617 5615 5614 5616 5618 5618 5618 5617 5617 5617 5616 5616 5614 5613 5613 5613 5612 5611 5609 5608 5607 5607 5606 5605 5603 5601 5599
5618 5619 5618 5618 5617 5616 5617 5617 5616 5615 5614 5614 5613 5613 5611 5610 5610 5609 5609 5609 5611 5612 5612 5611 5611 5611 5611 5610 5609 5608 5608 5608 5607 5607 5605 5604 5603 5602 5602 5601 5600 5598 5596 5594
5611 5611 5611 5611 5610 5610 5611 5611 5610 5610 5609 5608 5608 5607 5605 5605 5604 5603 5603 5605 5607 5607 5606 5606 5606 5606 5605 5604 5603 5603 5603 5603 5602 5601 5601 5600 5599 5598 5597 5596 5594 5593 5590 5589
5605 5605 5605 5605 5605 5604 5603 5604 5605 5605 5605 5604 5604 5603 5602 5600 5600 5601 5601 5602 5602 5602 5601 5601 5601 5600 5599 5598 5597 5597 5597 5597 5596 5596 5595 5594 5594 5593 5591 5590 5587 5586 5584 5582
5600 5600 5600 5599 5599 5598 5599 5600 5600 5600 5600 5599 5599 5599 5599 5598 5597 5597 5598 5598 5598 5598 5597 5597 5597 5596 5594 5593 5592 5592 5591 5591 5591 5590 5589 5587 5587 5586 5584 5583 5581 5579 5576 5574
5595 5595 5595 5595 5595 5595 5595 5594 5594 5594 5593 5593 5593 5594 5594 5594 5594 5594 5593 5594 5594 5594 5594 5593 5592 5591 5590 5589 5588 5588 5587 5586 5585 5584 5583 5581 5580 5579 5578 5576 5574 5572 5570 5567
5591 5591 5591 5591 5592 5592 5592 5591 5590 5590 5590 5589 5589 5590 5590 5590 5590 5590 5590 5590 5590 5589 5589 5588 5588 5587 5586 5585 5584 5583 5582 5581 5580 5578 5577 5575 5575 5573 5572 5570 5567 5565 5563 5560